Search projects


Showing 1-50 of 652 items.
NameOwnerPublication dateProject typeLikesViewed 
Built-in led 13 - Blink! Arduinoblocks 2016-04-27 16:50:48Arduino Uno 111085
THLPaola Pérez2016-05-31 13:23:28Arduino Uno 1761
P01 - Secuencia 1Juanjo López2016-07-29 11:18:36Arduino Uno 0878
P01 - Secuencia 2Juanjo López2016-07-29 11:19:06Arduino Uno 0857
P02 - Amanecer / anochecerJuanjo López2016-07-29 11:24:13Arduino Uno 0984
P03 - Lampara intensidad manualJuanjo López2016-07-29 11:40:47Arduino Uno 0841
P03 - Lampara intensidad manual (b)Juanjo López2016-07-29 11:49:11Arduino Uno 0811
P04 - SemáforoJuanjo López2016-07-29 11:59:25Arduino Uno 31010
P10 - FotómetroJuanjo López2016-08-28 16:35:20Arduino Uno 0931
P11 - Iluminación crepuscularJuanjo López2016-08-28 16:55:00Arduino Uno 1917
P12 - Encendido / apagado con palmadaJuanjo López2016-08-28 17:01:22Arduino Uno 1937
P13 - TermómetroJuanjo López2016-08-28 17:24:03Arduino Uno 31026
P14 - TermostatoJuanjo López2016-08-28 17:47:34Arduino Uno 51182
P15 - Medidor de distanciaJuanjo López2016-08-28 19:16:33Arduino Uno 11110
P16 - Riego automáticoJuanjo López2016-08-28 19:27:45Arduino Uno 21039
P17 - Lámpara multicolor IRJuanjo López2016-08-28 19:44:31Arduino Uno 0921
P18 - Piano con tecladoJuanjo López2016-08-28 22:15:30Arduino Uno 0981
P19 - Sensor de aparcamientoJuanjo López2016-08-28 22:37:54Arduino Uno 31013
P20 - Control pan/tiltJuanjo López2016-08-28 23:06:39Arduino Uno 0959
P21 - Control led desde PCJuanjo López2016-08-28 23:31:50Arduino Uno 1961
P22 - Control relés bluetoothJuanjo López2016-08-29 10:19:06Arduino Uno 21425
P23 - Estación metereológica bluetoothJuanjo López2016-08-29 10:33:12Arduino Uno 01041
P24 - Control por voz AndroidJuanjo López2016-08-29 16:55:45Arduino Uno 2986
P25 - Control domoticoJuanjo López2016-08-29 17:52:18Arduino Uno 11126
P05 - TimbreJuanjo López2016-08-29 19:56:31Arduino Uno 1934
P06 - Control inteligenteJuanjo López2016-08-29 20:04:11Arduino Uno 0898
P07 - Encendido por movimientoJuanjo López2016-08-29 20:04:29Arduino Uno 0959
P08 - Contador manualJuanjo López2016-08-29 20:04:41Arduino Uno 0942
P09 - CronómetroJuanjo López2016-08-29 20:04:52Arduino Uno 21039
Hola mundoArduinoblocks 2016-09-27 21:48:59Arduino Uno 41905
Termómetro digitalArduinoblocks 2016-09-28 22:25:26Arduino Uno 21632
Control de led RGBArduinoblocks 2016-09-29 16:42:45Arduino Uno 11052
Me gusta!Arduinoblocks 2016-09-29 17:50:11Arduino Uno 21388
Sensor aparcamientoArduinoblocks 2016-10-03 10:36:43Arduino Uno 93763
Led controlado con mando IRArduinoblocks 2016-10-04 21:06:01Arduino Uno 31243
Control de led con palmadaArduinoblocks 2016-10-07 10:39:01Arduino Uno 31590
Nivel de luz (LDR + servo)Arduinoblocks 2016-10-12 12:01:41Arduino Uno 43000
Invernadero AutomaticoArgon Argon2016-10-12 22:49:59Arduino Uno 41282
Temperatura/Humedad BluetoothArduinoblocks 2016-10-18 18:16:22Arduino Uno 43882
Condensador de fluzoArduinoblocks 2016-10-20 19:35:51Arduino Uno 3928
Easy PLUG - Relé + LCDArduinoblocks 2016-10-25 00:05:38Arduino Uno 21145
Calculador de intermitencia de vehículo. 2.0.Sistemas Eléctricos Del Automovil2016-10-27 16:46:50Arduino Uno 189
Encender/Apagar con un pulsadorArduinoblocks 2016-11-19 10:51:36Arduino Uno 11264
Cuenta vueltas coches tipo ScalextricJaime Del Hoyo Gomez2016-11-27 18:58:02Arduino Uno 1991
Multitarea sin bloqueoArduinoblocks 2016-12-01 12:02:58Arduino Uno 1954
GPS consolaArduinoblocks 2016-12-04 22:51:35Arduino Uno 1738
GPS con pantalla LCDArduinoblocks 2016-12-04 22:54:53Arduino Uno 2976
GPS tupperware 1.0Arduinoblocks 2016-12-05 08:25:20Arduino Uno 1808
GPS aviso de velocidadArduinoblocks 2016-12-05 09:10:19Arduino Uno 2875
Tareas 2.0Arduinoblocks 2016-12-05 17:30:26Arduino Uno 0860